Regional Weather Roundup
Issued by NWS

Home | Current Version | Previous Version | Graphics & Text | Print | Product List | Glossary On
Versions: 1 2 3 4 5 6 7 8 9 10 11 12 13 14 15 16 17 18 19 20 21 22 23 24 25 26 27 28 29 30 31 32 33 34 35 36 37 38 39 40 41 42 43 44 45 46 47 48 49 50
000
ASUS43 KFSD 231002
RWRSD

WEATHER ROUNDUP FOR SOUTH DAKOTA
NATIONAL WEATHER SERVICE SIOUX FALLS SD
400 AM CST SUN NOV 23 2014

NOTE: "FAIR" INDICATES FEW OR NO CLOUDS BELOW 12,000 FEET WITH NO
SIGNIFICANT WEATHER AND/OR OBSTRUCTIONS TO VISIBILITY.


SDZ001>005-009-010-012>017-231100-
NORTHWEST AND NORTH CENTRAL SOUTH DAKOTA

CITY           SKY/WX    TMP DP  RH WIND       PRES   REMARKS
BUFFALO          N/A     36  28  73 W29G41    29.48S
FAITH            N/A     37  28  70 W18G28    29.54R
MOBRIDGE       CLOUDY    38  36  92 NW6       29.44F
$$

SDZ012>016-024>037-041>051-057-063-072>074-231100-
SOUTHWEST AND SOUTH CENTRAL SOUTH DAKOTA

CITY           SKY/WX    TMP DP  RH WIND       PRES   REMARKS
RAPID CTY ARPT MOCLDY    38  20  48 NW20G26   29.61R
PIERRE         CLOUDY    39  35  86 NW16      29.52R
CUSTER         PTCLDY    29  14  53 NW8       29.59R WCI  21
ELLSWORTH AFB  MOCLDY    38  21  49 NW21      29.60R
PHILIP         CLOUDY    44  31  60 NW9       29.58R
PINE RIDGE     CLOUDY    34  32  92 SW5       29.62R WCI  30
WINNER         FAIR      40  34  79 NW18      29.51R
$$

SDZ004>011-016>023-039-040-231100-
NORTHEAST SOUTH DAKOTA

CITY           SKY/WX    TMP DP  RH WIND       PRES   REMARKS
ABERDEEN       CLOUDY    40  35  83 W16       29.42S
WATERTOWN      MOCLDY    36  31  82 N9        29.40S
SISSETON         N/A     40  34  79 NW3       29.37F
$$

SDZ017-020-022-023-036>040-048>070-231100-
SOUTHEAST SOUTH DAKOTA

CITY           SKY/WX    TMP DP  RH WIND       PRES   REMARKS
SIOUX FALLS    MOCLDY    40  39  97 SW3       29.41R FOG
HURON          MOCLDY    34  31  88 W9        29.46R WCI  27
MITCHELL       MOCLDY    34  31  88 W8        29.42R WCI  27
YANKTON        MOCLDY    43  37  81 S6        29.41F
$$

ABBREVIATIONS USED IN REMARKS
   TC - TEMPERATURE IN CELSIUS
  WCI - WIND CHILL INDEX
   HX - HEAT INDEX
  VSB - VISIBILITY




USA.gov is the U.S. government's official web portal to all federal, state and local government web resources and services.